Weather History for KM25 - December, 2013

Change the Weather History Date:

Thursday, December 5, 2013

  Actual Average (KPAH) Record (KPAH)
Temperature  
Mean Temperature 50 °F 40 °F  
Max Temperature 68 °F 49 °F 71 °F (1998)
Min Temperature 32 °F 31 °F 11 °F (1942)
Degree Days  
Heating Degree Days 15 25  
Month to date heating degree days 120  
Since 1 July heating degree days 897  
Cooling Degree Days 0 0  
Month to date cooling degree days 0  
Year to date cooling degree days 1542  
Moisture  
Dew Point 39 °F    
Average Humidity 87    
Maximum Humidity 100    
Minimum Humidity 75    
Precipitation  
Precipitation 0.00 in 0.15 in 2.51 in (1954)
Month to date precipitation 0.77  
Year to date precipitation 45.26  
Snow  
Snow 0.00 in 0.00 in 7.10 in (1984)
Month to date snowfall 0.2  
Since 1 July snowfall 0.3  
Snow Depth -    
Sea Level Pressure  
Sea Level Pressure 30.04 in    
Wind  
Wind Speed 10 mph (North)    
Max Wind Speed 16 mph    
Max Gust Speed 22 mph    
Visibility 9 miles    
Events Rain , Snow    
T = Trace of Precipitation, MM = Missing Value Source: NWS Daily Summary

Daily Weather History Graph

Daily Weather History Graph

Search for Another Location

Airport or City:

Trip Planner

Search our weather history database for the weather conditions in past years. The results will help you decide how hot, cold, wet, or windy it might be!

Date:

Astronomy

Dec. 05, 2013 Rise Set
Actual Time 6:52 AM CST 4:37 PM CST
Civil Twilight 6:23 AM CST 5:06 PM CST
Nautical Twilight 5:51 AM CST 5:38 PM CST
Astronomical Twilight 5:19 AM CST 6:10 PM CST
Moon 9:14 AM CST (12/5) 7:55 PM CST (12/5)
Length of Visible Light 10h 43m
Length of Day
9h 45m
Waxing Crescent, 11% of the Moon is Illuminated
Dec 5
Waxing Crescent
Dec 9
First Quarter
Dec 17
Full
Dec 25
Last Quarter
Jan 1
New

Hourly Weather History & Observations

Time (CST) Temp. Windchill Dew Point Humidity Pressure Visibility Wind Dir Wind Speed Gust Speed Precip Events Conditions
12:15 AM 68.0 °F - 60.8 °F 78% 29.81 in 10.0 mi SSW 13.8 mph 18.4 mph N/A   Overcast
12:35 AM 68.0 °F - 60.8 °F 78% 29.81 in 10.0 mi SW 9.2 mph - N/A   Overcast
12:55 AM 68.0 °F - 60.8 °F 78% 29.81 in 10.0 mi SW 8.1 mph - N/A   Overcast
1:15 AM 68.0 °F - 62.6 °F 83% 29.81 in 10.0 mi SW 9.2 mph - N/A   Overcast
1:35 AM 68.0 °F - 62.6 °F 83% 29.81 in 10.0 mi SW 8.1 mph - N/A   Mostly Cloudy
1:55 AM 68.0 °F - 62.6 °F 83% 29.82 in 10.0 mi West 6.9 mph - N/A   Overcast
2:15 AM 66.2 °F - 60.8 °F 83% 29.83 in 10.0 mi West 8.1 mph - N/A   Overcast
2:35 AM 64.4 °F - 60.8 °F 88% 29.84 in 7.0 mi WNW 8.1 mph - N/A   Overcast
2:55 AM 64.4 °F - 60.8 °F 88% 29.84 in 7.0 mi West 8.1 mph - N/A   Overcast
3:15 AM 64.4 °F - 60.8 °F 88% 29.85 in 7.0 mi West 6.9 mph - N/A Rain Rain
3:35 AM 62.6 °F - 60.8 °F 94% 29.85 in 5.0 mi West 4.6 mph - N/A Rain Light Rain
3:55 AM 62.6 °F - 60.8 °F 94% 29.85 in 5.0 mi West 4.6 mph - N/A Rain Light Rain
4:15 AM 60.8 °F - 59.0 °F 94% 29.86 in 5.0 mi NNW 12.7 mph - N/A Rain Light Rain
4:35 AM 55.4 °F - 51.8 °F 88% 29.87 in 10.0 mi NNW 11.5 mph - N/A   Overcast
4:55 AM 53.6 °F - 50.0 °F 88% 29.89 in 10.0 mi North 13.8 mph - N/A   Overcast
5:15 AM 51.8 °F - 48.2 °F 88% 29.90 in 10.0 mi North 11.5 mph 18.4 mph N/A   Overcast
5:35 AM 51.8 °F - 46.4 °F 82% 29.91 in 10.0 mi North 10.4 mph - N/A   Overcast
5:55 AM 50.0 °F - 46.4 °F 87% 29.92 in 10.0 mi North 12.7 mph - N/A   Overcast
6:15 AM 50.0 °F - 44.6 °F 82% 29.93 in 10.0 mi NNW 13.8 mph 19.6 mph N/A   Drizzle
6:35 AM 48.2 °F - 44.6 °F 87% 29.96 in 10.0 mi NNW 11.5 mph - N/A   Overcast
6:55 AM 46.4 °F 41.9 °F 44.6 °F 93% 29.97 in 7.0 mi NNW 9.2 mph 20.7 mph N/A Rain Light Rain
7:15 AM 46.4 °F 41.1 °F 44.6 °F 93% 29.98 in 7.0 mi NNW 11.5 mph 17.3 mph N/A   Light Drizzle
7:35 AM 44.6 °F 38.1 °F 41.0 °F 87% 30.00 in 7.0 mi NNW 13.8 mph - N/A   Overcast
7:55 AM 42.8 °F 35.8 °F 41.0 °F 93% 30.03 in 7.0 mi NNW 13.8 mph 20.7 mph N/A   Overcast
8:15 AM 42.8 °F 37.0 °F 39.2 °F 87% 30.03 in 7.0 mi North 10.4 mph - N/A   Overcast
8:35 AM 42.8 °F 39.3 °F 39.2 °F 87% 30.03 in 7.0 mi North 5.8 mph - N/A   Overcast
8:55 AM 42.8 °F 36.6 °F 35.6 °F 76% 30.05 in 10.0 mi North 11.5 mph 16.1 mph N/A   Overcast
9:15 AM 42.8 °F 37.5 °F 35.6 °F 76% 30.07 in 10.0 mi North 9.2 mph - N/A   Overcast
9:35 AM 42.8 °F 37.5 °F 35.6 °F 76% 30.08 in 10.0 mi North 9.2 mph - N/A   Overcast
9:55 AM 41.0 °F 34.3 °F 33.8 °F 76% 30.09 in 10.0 mi North 11.5 mph - N/A   Overcast
10:15 AM 41.0 °F 35.8 °F 33.8 °F 76% 30.08 in 10.0 mi North 8.1 mph - N/A Rain Light Rain
10:35 AM 39.2 °F 32.0 °F 32.0 °F 75% 30.09 in 10.0 mi North 11.5 mph 19.6 mph N/A   Overcast
10:55 AM 39.2 °F 33.0 °F 32.0 °F 75% 30.08 in 10.0 mi North 9.2 mph - N/A   Overcast
11:15 AM 39.2 °F 32.5 °F 32.0 °F 75% 30.06 in 10.0 mi North 10.4 mph - N/A   Overcast
11:35 AM 37.4 °F 30.3 °F 32.0 °F 81% 30.09 in 10.0 mi North 10.4 mph - N/A   Overcast
11:55 AM 37.4 °F 31.4 °F 32.0 °F 81% 30.07 in 10.0 mi North 8.1 mph - N/A   Overcast
12:15 PM 37.4 °F 32.1 °F 32.0 °F 81% 30.06 in 10.0 mi North 6.9 mph - N/A   Overcast
12:35 PM 37.4 °F 30.3 °F 32.0 °F 81% 30.07 in 10.0 mi North 10.4 mph - N/A   Overcast
12:55 PM 37.4 °F 29.8 °F 30.2 °F 75% 30.07 in 10.0 mi North 11.5 mph 18.4 mph N/A   Overcast
1:15 PM 37.4 °F 28.2 °F 32.0 °F 81% 30.09 in 10.0 mi NNW 16.1 mph 19.6 mph N/A   Overcast
1:35 PM 35.6 °F 27.1 °F 32.0 °F 87% 30.09 in 10.0 mi North 12.7 mph - N/A   Overcast
1:55 PM 35.6 °F 26.2 °F 30.2 °F 81% 30.09 in 10.0 mi North 15.0 mph 21.9 mph N/A   Overcast
2:15 PM 35.6 °F 28.0 °F 32.0 °F 87% 30.08 in 10.0 mi North 10.4 mph 16.1 mph N/A   Overcast
2:35 PM 35.6 °F 28.0 °F 32.0 °F 87% 30.07 in 10.0 mi North 10.4 mph - N/A   Overcast
2:55 PM 35.6 °F 27.5 °F 32.0 °F 87% 30.08 in 10.0 mi North 11.5 mph 16.1 mph N/A   Overcast
3:15 PM 33.8 °F 25.3 °F 30.2 °F 87% 30.09 in 10.0 mi North 11.5 mph - N/A Rain Light Rain
3:35 PM 33.8 °F 25.3 °F 32.0 °F 93% 30.09 in 7.0 mi North 11.5 mph 17.3 mph N/A Rain Rain
3:55 PM 33.8 °F 26.4 °F 32.0 °F 93% 30.12 in 10.0 mi North 9.2 mph 16.1 mph N/A   Overcast
4:15 PM 33.8 °F 27.7 °F 32.0 °F 93% 30.12 in 10.0 mi North 6.9 mph - N/A   Light Drizzle
4:35 PM 33.8 °F 26.4 °F 32.0 °F 93% 30.12 in 7.0 mi NNE 9.2 mph - N/A   Drizzle
4:55 PM 33.8 °F 27.7 °F 32.0 °F 93% 30.13 in 7.0 mi NNE 6.9 mph - N/A   Overcast
5:15 PM 33.8 °F 28.6 °F 32.0 °F 93% 30.14 in 10.0 mi NNE 5.8 mph - N/A   Overcast
5:35 PM 33.8 °F 27.0 °F 32.0 °F 93% 30.12 in 10.0 mi North 8.1 mph - N/A   Overcast
5:55 PM 33.8 °F 26.4 °F 32.0 °F 93% 30.15 in 10.0 mi North 9.2 mph - N/A   Overcast
6:15 PM 32.0 °F 23.6 °F 32.0 °F 100% 30.13 in 10.0 mi NNE 10.4 mph 18.4 mph N/A   Overcast
6:35 PM 33.8 °F 25.8 °F 32.0 °F 93% 30.14 in 10.0 mi NNE 10.4 mph - N/A   Overcast
6:55 PM 32.0 °F 24.2 °F 32.0 °F 100% 30.12 in 10.0 mi NE 9.2 mph - N/A   Overcast
7:15 PM 32.0 °F 23.6 °F 32.0 °F 100% 30.16 in 10.0 mi North 10.4 mph 19.6 mph N/A   Overcast
7:35 PM 32.0 °F 25.6 °F 30.2 °F 93% 30.16 in 10.0 mi NNE 6.9 mph 17.3 mph N/A   Overcast
7:55 PM 32.0 °F 23.0 °F 30.2 °F 93% 30.17 in 10.0 mi North 11.5 mph 18.4 mph N/A   Overcast
8:15 PM 32.0 °F 22.5 °F 30.2 °F 93% 30.17 in 10.0 mi NNE 12.7 mph 19.6 mph N/A   Overcast
8:35 PM 32.0 °F 23.6 °F 28.4 °F 87% 30.16 in 10.0 mi NNE 10.4 mph 18.4 mph N/A   Overcast
8:55 PM 32.0 °F 23.0 °F 28.4 °F 87% 30.20 in 10.0 mi North 11.5 mph 17.3 mph N/A   Overcast
9:15 PM 32.0 °F 23.0 °F 30.2 °F 93% 30.16 in 5.0 mi NNE 11.5 mph 17.3 mph N/A   Overcast
9:35 PM 32.0 °F 22.5 °F 30.2 °F 93% 30.15 in 10.0 mi NNE 12.7 mph 18.4 mph N/A   Overcast
9:55 PM 32.0 °F 24.2 °F 30.2 °F 93% 30.17 in 10.0 mi NNE 9.2 mph - N/A   Overcast
10:15 PM 32.0 °F 24.2 °F 30.2 °F 93% 30.20 in 10.0 mi NNE 9.2 mph - N/A   Overcast
10:35 PM 32.0 °F 23.6 °F 30.2 °F 93% 30.15 in 5.0 mi NNE 10.4 mph 19.6 mph N/A   Overcast
10:55 PM 32.0 °F 23.0 °F 30.2 °F 93% 30.17 in 7.0 mi NNE 11.5 mph - N/A   Overcast
11:15 PM 32.0 °F 23.0 °F 30.2 °F 93% 30.19 in 10.0 mi NNE 11.5 mph - N/A   Overcast
11:35 PM 32.0 °F 24.8 °F 30.2 °F 93% 30.16 in 3.0 mi NNE 8.1 mph - N/A Snow Light Snow
11:55 PM 32.0 °F 24.8 °F 30.2 °F 93% 30.15 in 7.0 mi NNE 8.1 mph - N/A   Overcast